Regional Weather Roundup
Issued by NWS

Home | Current Version | Previous Version | Text Only | Print | Product List | Glossary On
Versions: 1 2 3 4 5 6 7 8 9 10 11 12 13 14 15 16 17 18 19 20 21 22 23 24 25 26 27 28 29 30 31 32 33 34 35 36 37 38 39 40 41 42 43 44 45 46 47 48 49 50
000
ASHW40 PHFO 250910
RWRHI

WEATHER ROUNDUP FOR HAWAII
NATIONAL WEATHER SERVICE HONOLULU HI
1100 PM HST THU JUL 24 2014

THIS IS AN AUTOMATED REPORT THAT HAS NOT BEEN QUALITY CONTROLLED.

NOTE..."FAIR" INDICATES FEW OR NO CLOUDS BELOW 12,000 FEET WITH NO
SIGNIFICANT WEATHER AND/OR OBSTRUCTIONS TO VISIBILITY.

* - THESE SITES REPORT LIMITED FIELDS

HIZ001>004-251000-
KAUAI-NIIHAU-

CITY           SKY/WX    TMP DP  RH WIND       PRES   REMARKS
LIHUE APT      CLOUDY    76  72  87 NE14      30.08S
PORT ALLEN*      N/A     77 N/A N/A NE12        N/A
POIPU*           N/A     73 N/A N/A NE7G15      N/A
PRINCEVILLE*   NOT AVBL
KOKOLE POINT*  NOT AVBL
MOLOAA DAIRY*  NOT AVBL
WAIMEA HTS*    NOT AVBL
PUU OPAE*      NOT AVBL
PUU LUA*       NOT AVBL
MAKAHA RIDGE*  NOT AVBL
$$

HIZ005>011-251000-
OAHU-

CITY           SKY/WX    TMP DP  RH WIND       PRES   REMARKS
HONOLULU       PTCLDY    78  65  63 NE3       30.04R
KALAELOA       CLEAR     76  65  68 E3        30.05S
KANEOHE MCB    PTCLDY    75  66  73 E6        30.06R
WHEELER FIELD  MOCLDY    75  66  73 NE5       30.06S
BELLOWS*       NOT AVBL
KAHUKU*        NOT AVBL
WHEELER*       NOT AVBL
WAIANAE HARBOR NOT AVBL
DILLINGHAM*      N/A     73  68  83 SE1         N/A
KAHUKU TRN*      N/A     73  68  83 E8G18       N/A
KAWAILOA*      NOT AVBL
KII*             N/A     77  70  78 CALM        N/A
MAKUA RANGE*     N/A     77  66  69 NE3G13      N/A
OAHU FOREST NW NOT AVBL
SCHOFIELD BRK*   N/A     72  64  78 MISG        N/A
SCHOFIELD S*   NOT AVBL
WAIANAE VLY*   NOT AVBL
KUAOKALA*      NOT AVBL
HONOULIUULI*   NOT AVBL
MOKUOLOE IS*     N/A    N/A N/A N/A MISG        N/A
PALEHUA*       NOT AVBL
WAIAWA PHB*    NOT AVBL
$$

HIZ012>013-251000-
MOLOKAI-

CITY           SKY/WX    TMP DP  RH WIND       PRES   REMARKS
MOLOKAI AIRPT  CLEAR     74  70  87 NE10      30.05S
KALAUPAPA      NOT AVBL
MAKAPULAPAI*   NOT AVBL
MOLOKAI 1*     NOT AVBL
PUU ALII*      NOT AVBL
$$

HIZ016-251000-
KAHOOLAWE-

CITY           SKY/WX    TMP DP  RH WIND       PRES   REMARKS
KAHOOLAWE*     NOT AVBL
HAKIOAWA*      NOT AVBL
HONOKANAIA*      N/A     75  65  70 N9G20     30.04S
KANELOA*         N/A     73  66  78 E12G25    30.14R
KEALIALALO*    NOT AVBL
LUA MAKIKA*    NOT AVBL
$$

HIZ014>015-251000-
LANAI-

CITY           SKY/WX    TMP DP  RH WIND       PRES   REMARKS
LANAI CITY     FAIR      70  66  86 NE14G21   30.08S
LANAI 1*       NOT AVBL
$$

HIZ017>028-251000-
MAUI-

CITY           SKY/WX    TMP DP  RH WIND       PRES   REMARKS
KAHULUI        CLEAR     74  67  78 NE9       30.04S
KAPALUA-W MAUI NOT AVBL
HANA AIRPORT   MOCLDY    72  68  88 CALM      30.08S
HANA*          NOT AVBL
HALEAKALA SUMM   N/A     50   5  16 E21         N/A
MAALAEA BAY*   NOT AVBL
HALEAKALA*     NOT AVBL
KAUPO GAP*     NOT AVBL
KULA 1*          N/A    N/A N/A N/A E2G8        N/A
$$

HIZ023>026-251000-
BIG ISLAND OF HAWAII COAST AND LOWER SLOPES-

CITY           SKY/WX    TMP DP  RH WIND       PRES   REMARKS
KAILUA KONA    CLEAR     79  69  71 E5        29.99R
HILO           MOCLDY    73  69  87 SW6       30.05F
HONOKAA*       NOT AVBL
KAWAIHAE MWT*  NOT AVBL
KAWAIHAE*        N/A     79 N/A N/A NE3         N/A
SOUTH POINT*   NOT AVBL
UPOLU AIRPORT* NOT AVBL
KAMUELA*       MOSUNNY   64  63  94 NE17      30.13S
HAKALAU*         N/A    N/A N/A N/A W3          N/A
KALOKO-HONOKO* NOT AVBL
PALI 2*          N/A     64  57  77 N15G26      N/A
KEALAKOMO*       N/A     75  68  78 NE12G20     N/A
KAUPULEHU*     NOT AVBL
KAPAPALA*        N/A     63  61  92 NW3         N/A
LOWER KAHUKU*  NOT AVBL
PUHE CS*       NOT AVBL
PUHO CS*       NOT AVBL
PTA KEAMUKU*     N/A     57  54  88 E6G13       N/A
WAIKOLOA*      NOT AVBL
$$

HIZ027>028-251000-
BIG ISLAND OF HAWAII INTERIOR AND SUMMMITS-

CITY           SKY/WX    TMP DP  RH WIND       PRES   REMARKS
BRADSHAW FIELD CLEAR     54  46  76 SE1       30.36S
MK VISITOR CEN NOT AVBL
MAUNA KEA*       N/A     37   7  28 E25         N/A  WCI  26
MAUNA LOA*       N/A     48   0  13 MISG        N/A
MAUNA LOA 1*   NOT AVBL
PTA KIPUKA*      N/A     55  55 100 SE3         N/A
PTA RANGE 17*    N/A    N/A N/A N/A E7          N/A
PTA WEST*        N/A     57  55  94 S5          N/A
NENE CABIN*    NOT AVBL
AHUMOA*        NOT AVBL
PTA PORTABLE*  NOT AVBL
PUU MALI*      NOT AVBL
$$

HIC003-251000-
NORTHWEST ISLANDS-

CITY           SKY/WX    TMP DP  RH WIND       PRES   REMARKS
MIDWAY ISLAND  PTCLDY    81  72  74 E6        30.16R
MIDWAY NOS*    NOT AVBL
FRENCH FRIGATE NOT AVBL
$$

PHZ110>124-180-251000-
BUOY REPORTS

STATION/POSITION TIME  TEMP    WIND        PRES    WAVE   SWELL
                       AIR SEA DIR/SP/G            HT/PER HT/DIR
                 (UTC) (F)     (DEG/KT/KT) (MB)    (FT/S) (FT/D)
BUOY 51001       NOT AVBL
BUOY 51101       0900   78 80   60/ 16/ 19 1019.1S   6/ 7   3/110
BUOY 51100       0900   77 77   80/ 10     1018.5F
BUOY 51003       0800   80 81   50/ 16/ 19 1016.1R   8/ 8   5
BUOY 51004       0841   79 80   70/ 16/ 19 1015.4F   7/ 8   3/ 80
BARBERS PT BUOY  NOT AVBL
WAIMEA BAY BUOY  0900      80                N/A     3/ 8
KAILUA BAY BUOY  0900      80                N/A     5/ 9   2/100
LANAI BUOY       0900      80                N/A     2/11   2/200
BARBERS PT 2     0900      81                N/A     3/ 7   2/190
PAUWELA MAUI     0900      79                N/A     5/ 9
HILO             NOT AVBL
KANEOHE BAY BUOY 0900      80                N/A     5/ 7
HANALEI KAUAI    NOT AVBL
KAHULUI HARBOR   0900   77 81   30/  7/  9 1017.2S
HONOLULU HARBOR  0900   79      CALM  /  3 1017.5S
KILO NALU        NOT AVBL
HILO HARBOR      0900   72     240/  5/  5 1017.2F
MOKUOLOE         0900      82              1018.0S
NAWILIWILI       0900      82                N/A
WHOTS BUOY       NOT AVBL
BUOY 51028       NOT AVBL
$$

......................KEY........................................
  SKY/WX - SKY CONDITIONS/PRESENT WEATHER
  TMP    - TEMPERATURE IN FAHRENHEIT
  DWPT   - DEWPOINT IN FAHRENHEIT
  RH     - RELATIVE HUMIDITY IN PERCENT
  WIND   - DIRECTION AND SPEED /MPH FOR ISLANDS...KTS FOR BUOYS/
  PRES   - MEAN SEA LEVEL PRESSURE IN INCHES OF HG
  VSB    - VISIBILITY IN MILES
  HX     - HEAT INDEX
  WCI    - WIND CHILL INDEX
  VRB    - VARIABLE WIND DIRECTION
  N/A    - NOT AVAILABLE



USA.gov is the U.S. government's official web portal to all federal, state and local government web resources and services.